Time,TemperatureF,DewpointF,PressureIn,WindDirection,WindDirectionDegrees,WindSpeedMPH,WindSpeedGustMPH,Humidity,HourlyPrecipIn,Conditions,Clouds,dailyrainin,SoftwareType,DateUTC
2013-11-14 00:02:00,49.4,48.3,30.14,NNE,23,0.0,-999.0,96,0.00,,,0.00,Wunderground v.1.15,2013-11-14 08:02:00,
2013-11-14 00:07:00,49.4,48.3,30.14,NNE,23,0.0,-999.0,96,0.00,,,0.00,Wunderground v.1.15,2013-11-14 08:07:00,
2013-11-14 00:12:00,49.4,48.3,30.14,NNE,23,0.0,-999.0,96,0.00,,,0.00,Wunderground v.1.15,2013-11-14 08:12:00,
2013-11-14 00:17:00,49.4,48.3,30.14,NNE,23,0.0,-999.0,96,0.00,,,0.00,Wunderground v.1.15,2013-11-14 08:17:00,
2013-11-14 00:22:00,49.4,48.3,30.14,NNE,23,0.0,-999.0,96,0.00,,,0.00,Wunderground v.1.15,2013-11-14 08:22:00,
2013-11-14 00:27:00,49.4,48.3,30.14,NNE,23,0.0,-999.0,96,0.00,,,0.00,Wunderground v.1.15,2013-11-14 08:27:00,
2013-11-14 00:32:00,49.4,48.3,30.14,NNE,23,0.0,-999.0,96,0.00,,,0.00,Wunderground v.1.15,2013-11-14 08:32:00,
2013-11-14 00:37:00,49.4,48.3,30.14,NNE,23,0.0,-999.0,96,0.00,,,0.00,Wunderground v.1.15,2013-11-14 08:37:00,
2013-11-14 00:42:00,49.4,48.3,30.14,NNE,23,0.0,-999.0,96,0.00,,,0.00,Wunderground v.1.15,2013-11-14 08:42:00,
2013-11-14 00:47:00,47.8,46.7,30.13,WNW,293,0.0,-999.0,96,0.00,,,0.00,Wunderground v.1.15,2013-11-14 08:47:00,
2013-11-14 00:52:00,47.8,46.7,30.13,WNW,293,0.0,-999.0,96,0.00,,,0.00,Wunderground v.1.15,2013-11-14 08:52:00,
2013-11-14 00:57:00,47.8,46.7,30.13,WNW,293,0.0,-999.0,96,0.00,,,0.00,Wunderground v.1.15,2013-11-14 08:57:00,
2013-11-14 01:02:00,47.8,46.7,30.13,WNW,293,0.0,-999.0,96,0.00,,,0.00,Wunderground v.1.15,2013-11-14 09:02:00,
2013-11-14 01:07:00,47.8,46.7,30.13,WNW,293,0.0,-999.0,96,0.00,,,0.00,Wunderground v.1.15,2013-11-14 09:07:00,
2013-11-14 01:12:00,47.8,46.7,30.13,WNW,293,0.0,-999.0,96,0.00,,,0.00,Wunderground v.1.15,2013-11-14 09:12:00,
2013-11-14 01:17:00,48.3,47.5,30.13,West,270,0.0,-999.0,97,0.00,,,0.00,Wunderground v.1.15,2013-11-14 09:17:00,
2013-11-14 01:22:00,48.3,47.5,30.13,West,270,0.0,-999.0,97,0.00,,,0.00,Wunderground v.1.15,2013-11-14 09:22:00,
2013-11-14 01:27:00,48.3,47.5,30.13,West,270,0.0,-999.0,97,0.00,,,0.00,Wunderground v.1.15,2013-11-14 09:27:00,
2013-11-14 01:32:00,48.3,47.5,30.13,West,270,0.0,-999.0,97,0.00,,,0.00,Wunderground v.1.15,2013-11-14 09:32:00,
2013-11-14 01:37:00,48.3,47.5,30.13,West,270,0.0,-999.0,97,0.00,,,0.00,Wunderground v.1.15,2013-11-14 09:37:00,
2013-11-14 01:42:00,48.3,47.5,30.13,West,270,0.0,-999.0,97,0.00,,,0.00,Wunderground v.1.15,2013-11-14 09:42:00,
2013-11-14 01:47:00,49.0,48.2,30.13,WNW,293,0.0,-999.0,97,0.00,,,0.00,Wunderground v.1.15,2013-11-14 09:47:00,
2013-11-14 01:52:00,49.0,48.2,30.13,WNW,293,0.0,-999.0,97,0.00,,,0.00,Wunderground v.1.15,2013-11-14 09:52:00,
2013-11-14 01:57:00,49.0,48.2,30.13,WNW,293,0.0,-999.0,97,0.00,,,0.00,Wunderground v.1.15,2013-11-14 09:57:00,
2013-11-14 02:02:00,49.0,48.2,30.13,WNW,293,0.0,-999.0,97,0.00,,,0.00,Wunderground v.1.15,2013-11-14 10:02:00,
2013-11-14 02:07:00,49.0,48.2,30.13,WNW,293,0.0,-999.0,97,0.00,,,0.00,Wunderground v.1.15,2013-11-14 10:07:00,
2013-11-14 02:12:00,49.0,48.2,30.13,WNW,293,0.0,-999.0,97,0.00,,,0.00,Wunderground v.1.15,2013-11-14 10:12:00,
2013-11-14 02:17:00,49.1,48.3,30.13,WNW,293,0.0,-999.0,97,0.00,,,0.00,Wunderground v.1.15,2013-11-14 10:17:00,
2013-11-14 02:22:00,49.1,48.3,30.13,WNW,293,0.0,-999.0,97,0.00,,,0.00,Wunderground v.1.15,2013-11-14 10:22:00,
2013-11-14 02:27:00,49.1,48.3,30.13,WNW,293,0.0,-999.0,97,0.00,,,0.00,Wunderground v.1.15,2013-11-14 10:27:00,
2013-11-14 02:32:00,49.1,48.3,30.13,WNW,293,0.0,-999.0,97,0.00,,,0.00,Wunderground v.1.15,2013-11-14 10:32:00,
2013-11-14 02:37:00,49.1,48.3,30.13,WNW,293,0.0,-999.0,97,0.00,,,0.00,Wunderground v.1.15,2013-11-14 10:37:00,
2013-11-14 02:42:00,49.1,48.3,30.13,WNW,293,0.0,-999.0,97,0.00,,,0.00,Wunderground v.1.15,2013-11-14 10:42:00,
2013-11-14 02:47:00,49.6,48.8,30.11,NNE,23,0.0,-999.0,97,0.00,,,0.00,Wunderground v.1.15,2013-11-14 10:47:00,
2013-11-14 02:52:00,49.6,48.8,30.11,NNE,23,0.0,-999.0,97,0.00,,,0.00,Wunderground v.1.15,2013-11-14 10:52:00,
2013-11-14 02:57:00,49.6,48.8,30.11,NNE,23,0.0,-999.0,97,0.00,,,0.00,Wunderground v.1.15,2013-11-14 10:57:00,
2013-11-14 03:02:00,49.6,48.8,30.11,NNE,23,0.0,-999.0,97,0.00,,,0.00,Wunderground v.1.15,2013-11-14 11:02:00,
2013-11-14 03:07:00,49.6,48.8,30.11,NNE,23,0.0,-999.0,97,0.00,,,0.00,Wunderground v.1.15,2013-11-14 11:07:00,
2013-11-14 03:12:00,49.6,48.8,30.11,NNE,23,0.0,-999.0,97,0.00,,,0.00,Wunderground v.1.15,2013-11-14 11:12:00,
2013-11-14 03:17:00,49.7,49.2,30.11,ENE,68,0.0,-999.0,98,0.00,,,0.00,Wunderground v.1.15,2013-11-14 11:17:00,
2013-11-14 03:22:00,49.7,49.2,30.11,ENE,68,0.0,-999.0,98,0.00,,,0.00,Wunderground v.1.15,2013-11-14 11:22:00,
2013-11-14 03:27:00,49.7,49.2,30.11,ENE,68,0.0,-999.0,98,0.00,,,0.00,Wunderground v.1.15,2013-11-14 11:27:00,
2013-11-14 03:32:00,49.7,49.2,30.11,ENE,68,0.0,-999.0,98,0.00,,,0.00,Wunderground v.1.15,2013-11-14 11:32:00,
2013-11-14 03:37:00,49.7,49.2,30.11,ENE,68,0.0,-999.0,98,0.00,,,0.00,Wunderground v.1.15,2013-11-14 11:37:00,
2013-11-14 03:42:00,49.7,49.2,30.11,ENE,68,0.0,-999.0,98,0.00,,,0.00,Wunderground v.1.15,2013-11-14 11:42:00,
2013-11-14 03:47:00,50.1,49.6,30.10,West,270,0.0,-999.0,98,0.00,,,0.00,Wunderground v.1.15,2013-11-14 11:47:00,
2013-11-14 03:52:00,50.1,49.6,30.10,West,270,0.0,-999.0,98,0.00,,,0.00,Wunderground v.1.15,2013-11-14 11:52:00,
2013-11-14 03:57:00,50.1,49.6,30.10,West,270,0.0,-999.0,98,0.00,,,0.00,Wunderground v.1.15,2013-11-14 11:57:00,
2013-11-14 04:02:00,50.1,49.6,30.10,West,270,0.0,-999.0,98,0.00,,,0.00,Wunderground v.1.15,2013-11-14 12:02:00,
2013-11-14 04:07:00,50.1,49.6,30.10,West,270,0.0,-999.0,98,0.00,,,0.00,Wunderground v.1.15,2013-11-14 12:07:00,
2013-11-14 04:12:00,50.1,49.6,30.10,West,270,0.0,-999.0,98,0.00,,,0.00,Wunderground v.1.15,2013-11-14 12:12:00,
2013-11-14 04:17:00,49.5,49.0,30.10,West,270,0.0,-999.0,98,0.00,,,0.00,Wunderground v.1.15,2013-11-14 12:17:00,
2013-11-14 04:22:00,49.5,49.0,30.10,West,270,0.0,-999.0,98,0.00,,,0.00,Wunderground v.1.15,2013-11-14 12:22:00,
2013-11-14 04:27:00,49.5,49.0,30.10,West,270,0.0,-999.0,98,0.00,,,0.00,Wunderground v.1.15,2013-11-14 12:27:00,
2013-11-14 04:32:00,49.5,49.0,30.10,West,270,0.0,-999.0,98,0.00,,,0.00,Wunderground v.1.15,2013-11-14 12:32:00,
2013-11-14 04:37:00,49.5,49.0,30.10,West,270,0.0,-999.0,98,0.00,,,0.00,Wunderground v.1.15,2013-11-14 12:37:00,
2013-11-14 04:42:00,49.5,49.0,30.10,West,270,0.0,-999.0,98,0.00,,,0.00,Wunderground v.1.15,2013-11-14 12:42:00,
2013-11-14 04:47:00,49.6,49.1,30.10,East,90,0.0,-999.0,98,0.00,,,0.00,Wunderground v.1.15,2013-11-14 12:47:00,
2013-11-14 04:52:00,49.6,49.1,30.10,East,90,0.0,-999.0,98,0.00,,,0.00,Wunderground v.1.15,2013-11-14 12:52:00,
2013-11-14 04:57:00,49.6,49.1,30.10,East,90,0.0,-999.0,98,0.00,,,0.00,Wunderground v.1.15,2013-11-14 12:57:00,
2013-11-14 05:02:00,49.6,49.1,30.10,East,90,0.0,-999.0,98,0.00,,,0.00,Wunderground v.1.15,2013-11-14 13:02:00,
2013-11-14 05:07:00,49.6,49.1,30.10,East,90,0.0,-999.0,98,0.00,,,0.00,Wunderground v.1.15,2013-11-14 13:07:00,
2013-11-14 05:12:00,49.6,49.1,30.10,East,90,0.0,-999.0,98,0.00,,,0.00,Wunderground v.1.15,2013-11-14 13:12:00,
2013-11-14 05:17:00,49.3,48.5,30.10,ESE,113,0.0,-999.0,97,0.00,,,0.00,Wunderground v.1.15,2013-11-14 13:17:00,
2013-11-14 05:22:00,49.3,48.5,30.10,ESE,113,0.0,-999.0,97,0.00,,,0.00,Wunderground v.1.15,2013-11-14 13:22:00,
2013-11-14 05:27:00,49.3,48.5,30.10,ESE,113,0.0,-999.0,97,0.00,,,0.00,Wunderground v.1.15,2013-11-14 13:27:00,
2013-11-14 05:32:00,49.3,48.5,30.10,ESE,113,0.0,-999.0,97,0.00,,,0.00,Wunderground v.1.15,2013-11-14 13:32:00,
2013-11-14 05:37:00,49.3,48.5,30.10,ESE,113,0.0,-999.0,97,0.00,,,0.00,Wunderground v.1.15,2013-11-14 13:37:00,
2013-11-14 05:42:00,49.3,48.5,30.10,ESE,113,0.0,-999.0,97,0.00,,,0.00,Wunderground v.1.15,2013-11-14 13:42:00,
2013-11-14 05:47:00,49.9,49.4,30.10,SE,135,0.0,-999.0,98,0.00,,,0.00,Wunderground v.1.15,2013-11-14 13:47:00,
2013-11-14 05:52:00,49.9,49.4,30.10,SE,135,0.0,-999.0,98,0.00,,,0.00,Wunderground v.1.15,2013-11-14 13:52:00,
2013-11-14 05:57:00,49.9,49.4,30.10,SE,135,0.0,-999.0,98,0.00,,,0.00,Wunderground v.1.15,2013-11-14 13:57:00,
2013-11-14 06:02:00,49.9,49.4,30.10,SE,135,0.0,-999.0,98,0.00,,,0.00,Wunderground v.1.15,2013-11-14 14:02:00,
2013-11-14 06:07:00,49.9,49.4,30.10,SE,135,0.0,-999.0,98,0.00,,,0.00,Wunderground v.1.15,2013-11-14 14:07:00,
2013-11-14 06:12:00,49.9,49.4,30.10,SE,135,0.0,-999.0,98,0.00,,,0.00,Wunderground v.1.15,2013-11-14 14:12:00,
2013-11-14 06:17:00,50.3,49.8,30.10,ESE,113,0.0,-999.0,98,0.00,,,0.00,Wunderground v.1.15,2013-11-14 14:17:00,
2013-11-14 06:22:00,50.3,49.8,30.10,ESE,113,0.0,-999.0,98,0.00,,,0.00,Wunderground v.1.15,2013-11-14 14:22:00,
2013-11-14 06:27:00,50.3,49.8,30.10,ESE,113,0.0,-999.0,98,0.00,,,0.00,Wunderground v.1.15,2013-11-14 14:27:00,
2013-11-14 06:32:00,50.3,49.8,30.10,ESE,113,0.0,-999.0,98,0.00,,,0.00,Wunderground v.1.15,2013-11-14 14:32:00,
2013-11-14 06:37:00,50.3,49.8,30.10,ESE,113,0.0,-999.0,98,0.00,,,0.00,Wunderground v.1.15,2013-11-14 14:37:00,
2013-11-14 06:42:00,50.3,49.8,30.10,ESE,113,0.0,-999.0,98,0.00,,,0.00,Wunderground v.1.15,2013-11-14 14:42:00,
2013-11-14 06:47:00,50.4,49.9,30.10,ESE,113,0.0,-999.0,98,0.00,,,0.00,Wunderground v.1.15,2013-11-14 14:47:00,
2013-11-14 06:52:00,50.4,49.9,30.10,ESE,113,0.0,-999.0,98,0.00,,,0.00,Wunderground v.1.15,2013-11-14 14:52:00,
2013-11-14 06:57:00,50.4,49.9,30.10,ESE,113,0.0,-999.0,98,0.00,,,0.00,Wunderground v.1.15,2013-11-14 14:57:00,
2013-11-14 07:02:00,50.4,49.9,30.10,ESE,113,0.0,-999.0,98,0.00,,,0.00,Wunderground v.1.15,2013-11-14 15:02:00,
2013-11-14 07:07:00,50.4,49.9,30.10,ESE,113,0.0,-999.0,98,0.00,,,0.00,Wunderground v.1.15,2013-11-14 15:07:00,
2013-11-14 07:12:00,50.4,49.9,30.10,ESE,113,0.0,-999.0,98,0.00,,,0.00,Wunderground v.1.15,2013-11-14 15:12:00,
2013-11-14 07:17:00,50.9,50.4,30.10,SE,135,0.0,-999.0,98,0.00,,,0.00,Wunderground v.1.15,2013-11-14 15:17:00,
2013-11-14 07:22:00,50.9,50.4,30.10,SE,135,0.0,-999.0,98,0.00,,,0.00,Wunderground v.1.15,2013-11-14 15:22:00,
2013-11-14 07:27:00,50.9,50.4,30.10,SE,135,0.0,-999.0,98,0.00,,,0.00,Wunderground v.1.15,2013-11-14 15:27:00,
2013-11-14 07:32:00,50.9,50.4,30.10,SE,135,0.0,-999.0,98,0.00,,,0.00,Wunderground v.1.15,2013-11-14 15:32:00,
2013-11-14 07:37:00,50.9,50.4,30.10,SE,135,0.0,-999.0,98,0.00,,,0.00,Wunderground v.1.15,2013-11-14 15:37:00,
2013-11-14 07:42:00,50.9,50.4,30.10,SE,135,0.0,-999.0,98,0.00,,,0.00,Wunderground v.1.15,2013-11-14 15:42:00,
2013-11-14 07:47:00,51.3,50.8,30.11,SW,225,0.0,-999.0,98,0.00,,,0.00,Wunderground v.1.15,2013-11-14 15:47:00,
2013-11-14 07:52:00,51.3,50.8,30.11,SW,225,0.0,-999.0,98,0.00,,,0.00,Wunderground v.1.15,2013-11-14 15:52:00,
2013-11-14 07:57:00,51.3,50.8,30.11,SW,225,0.0,-999.0,98,0.00,,,0.00,Wunderground v.1.15,2013-11-14 15:57:00,
2013-11-14 08:02:00,51.3,50.8,30.11,SW,225,0.0,-999.0,98,0.00,,,0.00,Wunderground v.1.15,2013-11-14 16:02:00,
2013-11-14 08:07:00,51.3,50.8,30.11,SW,225,0.0,-999.0,98,0.00,,,0.00,Wunderground v.1.15,2013-11-14 16:07:00,
2013-11-14 08:12:00,51.3,50.8,30.11,SW,225,0.0,-999.0,98,0.00,,,0.00,Wunderground v.1.15,2013-11-14 16:12:00,
2013-11-14 08:17:00,51.6,51.1,30.12,WNW,293,0.0,-999.0,98,0.00,,,0.00,Wunderground v.1.15,2013-11-14 16:17:00,
2013-11-14 08:22:00,51.6,51.1,30.12,WNW,293,0.0,-999.0,98,0.00,,,0.00,Wunderground v.1.15,2013-11-14 16:22:00,
2013-11-14 08:27:00,51.6,51.1,30.12,WNW,293,0.0,-999.0,98,0.00,,,0.00,Wunderground v.1.15,2013-11-14 16:27:00,
2013-11-14 08:32:00,51.6,51.1,30.12,WNW,293,0.0,-999.0,98,0.00,,,0.00,Wunderground v.1.15,2013-11-14 16:32:00,
2013-11-14 08:37:00,51.6,51.1,30.12,WNW,293,0.0,-999.0,98,0.00,,,0.00,Wunderground v.1.15,2013-11-14 16:37:00,
2013-11-14 08:42:00,51.6,51.1,30.12,WNW,293,0.0,-999.0,98,0.00,,,0.00,Wunderground v.1.15,2013-11-14 16:42:00,
2013-11-14 08:47:00,51.8,51.3,30.11,WSW,248,1.0,-999.0,98,0.00,,,0.00,Wunderground v.1.15,2013-11-14 16:47:00,
2013-11-14 08:52:00,51.8,51.3,30.11,WSW,248,1.0,-999.0,98,0.00,,,0.00,Wunderground v.1.15,2013-11-14 16:52:00,
2013-11-14 08:57:00,51.8,51.3,30.11,WSW,248,1.0,-999.0,98,0.00,,,0.00,Wunderground v.1.15,2013-11-14 16:57:00,
2013-11-14 09:02:00,51.8,51.3,30.11,WSW,248,1.0,-999.0,98,0.00,,,0.00,Wunderground v.1.15,2013-11-14 17:02:00,
2013-11-14 09:07:00,51.8,51.3,30.11,WSW,248,1.0,-999.0,98,0.00,,,0.00,Wunderground v.1.15,2013-11-14 17:07:00,
2013-11-14 09:12:00,51.8,51.3,30.11,WSW,248,1.0,-999.0,98,0.00,,,0.00,Wunderground v.1.15,2013-11-14 17:12:00,
2013-11-14 09:17:00,52.2,51.7,30.11,SW,225,1.0,-999.0,98,0.00,,,0.00,Wunderground v.1.15,2013-11-14 17:17:00,
2013-11-14 09:22:00,52.2,51.7,30.11,SW,225,1.0,-999.0,98,0.00,,,0.00,Wunderground v.1.15,2013-11-14 17:22:00,
2013-11-14 09:27:00,52.2,51.7,30.11,SW,225,1.0,-999.0,98,0.00,,,0.00,Wunderground v.1.15,2013-11-14 17:27:00,
2013-11-14 09:32:00,52.2,51.7,30.11,SW,225,1.0,-999.0,98,0.00,,,0.00,Wunderground v.1.15,2013-11-14 17:32:00,
2013-11-14 09:37:00,52.2,51.7,30.11,SW,225,1.0,-999.0,98,0.00,,,0.00,Wunderground v.1.15,2013-11-14 17:37:00,
2013-11-14 09:42:00,52.2,51.7,30.11,SW,225,1.0,-999.0,98,0.00,,,0.00,Wunderground v.1.15,2013-11-14 17:42:00,
2013-11-14 09:47:00,52.4,51.6,30.10,West,270,1.0,-999.0,97,0.00,,,0.00,Wunderground v.1.15,2013-11-14 17:47:00,
2013-11-14 09:52:00,52.4,51.6,30.10,West,270,1.0,-999.0,97,0.00,,,0.00,Wunderground v.1.15,2013-11-14 17:52:00,
2013-11-14 09:57:00,52.4,51.6,30.10,West,270,1.0,-999.0,97,0.00,,,0.00,Wunderground v.1.15,2013-11-14 17:57:00,
2013-11-14 10:02:00,52.4,51.6,30.10,West,270,1.0,-999.0,97,0.00,,,0.00,Wunderground v.1.15,2013-11-14 18:02:00,
2013-11-14 10:07:00,52.4,51.6,30.10,West,270,1.0,-999.0,97,0.00,,,0.00,Wunderground v.1.15,2013-11-14 18:07:00,
2013-11-14 10:12:00,52.4,51.6,30.10,West,270,1.0,-999.0,97,0.00,,,0.00,Wunderground v.1.15,2013-11-14 18:12:00,
2013-11-14 10:17:00,53.0,51.9,30.10,West,270,1.0,-999.0,96,0.00,,,0.00,Wunderground v.1.15,2013-11-14 18:17:00,
2013-11-14 10:22:00,53.0,51.9,30.10,West,270,1.0,-999.0,96,0.00,,,0.00,Wunderground v.1.15,2013-11-14 18:22:00,
2013-11-14 10:27:00,53.0,51.9,30.10,West,270,1.0,-999.0,96,0.00,,,0.00,Wunderground v.1.15,2013-11-14 18:27:00,
2013-11-14 10:32:00,53.0,51.9,30.10,West,270,1.0,-999.0,96,0.00,,,0.00,Wunderground v.1.15,2013-11-14 18:32:00,
2013-11-14 10:37:00,53.0,51.9,30.10,West,270,1.0,-999.0,96,0.00,,,0.00,Wunderground v.1.15,2013-11-14 18:37:00,
2013-11-14 10:42:00,53.0,51.9,30.10,West,270,1.0,-999.0,96,0.00,,,0.00,Wunderground v.1.15,2013-11-14 18:42:00,
2013-11-14 10:47:00,54.5,52.2,30.09,SSW,203,1.0,-999.0,92,0.00,,,0.00,Wunderground v.1.15,2013-11-14 18:47:00,
2013-11-14 10:52:00,54.5,52.2,30.09,SSW,203,1.0,-999.0,92,0.00,,,0.00,Wunderground v.1.15,2013-11-14 18:52:00,
2013-11-14 10:57:00,54.5,52.2,30.09,SSW,203,1.0,-999.0,92,0.00,,,0.00,Wunderground v.1.15,2013-11-14 18:57:00,
2013-11-14 11:02:00,54.5,52.2,30.09,SSW,203,1.0,-999.0,92,0.00,,,0.00,Wunderground v.1.15,2013-11-14 19:02:00,
2013-11-14 11:07:00,54.5,52.2,30.09,SSW,203,1.0,-999.0,92,0.00,,,0.00,Wunderground v.1.15,2013-11-14 19:07:00,
2013-11-14 11:12:00,54.5,52.2,30.09,SSW,203,1.0,-999.0,92,0.00,,,0.00,Wunderground v.1.15,2013-11-14 19:12:00,
2013-11-14 11:17:00,56.6,53.1,30.07,WNW,293,1.0,-999.0,88,0.00,,,0.00,Wunderground v.1.15,2013-11-14 19:17:00,
2013-11-14 11:22:00,56.6,53.1,30.07,WNW,293,1.0,-999.0,88,0.00,,,0.00,Wunderground v.1.15,2013-11-14 19:22:00,
2013-11-14 11:27:00,56.6,53.1,30.07,WNW,293,1.0,-999.0,88,0.00,,,0.00,Wunderground v.1.15,2013-11-14 19:27:00,
2013-11-14 11:32:00,56.6,53.1,30.07,WNW,293,1.0,-999.0,88,0.00,,,0.00,Wunderground v.1.15,2013-11-14 19:32:00,
2013-11-14 11:37:00,56.6,53.1,30.07,WNW,293,1.0,-999.0,88,0.00,,,0.00,Wunderground v.1.15,2013-11-14 19:37:00,
2013-11-14 11:42:00,56.6,53.1,30.07,WNW,293,1.0,-999.0,88,0.00,,,0.00,Wunderground v.1.15,2013-11-14 19:42:00,
2013-11-14 11:47:00,58.0,53.5,30.05,SW,225,2.0,-999.0,85,0.00,,,0.00,Wunderground v.1.15,2013-11-14 19:47:00,
2013-11-14 11:52:00,58.0,53.5,30.05,SW,225,2.0,-999.0,85,0.00,,,0.00,Wunderground v.1.15,2013-11-14 19:52:00,
2013-11-14 11:57:00,58.0,53.5,30.05,SW,225,2.0,-999.0,85,0.00,,,0.00,Wunderground v.1.15,2013-11-14 19:57:00,
2013-11-14 12:02:00,58.0,53.5,30.05,SW,225,2.0,-999.0,85,0.00,,,0.00,Wunderground v.1.15,2013-11-14 20:02:00,
2013-11-14 12:07:00,58.0,53.5,30.05,SW,225,2.0,-999.0,85,0.00,,,0.00,Wunderground v.1.15,2013-11-14 20:07:00,
2013-11-14 12:12:00,58.0,53.5,30.05,SW,225,2.0,-999.0,85,0.00,,,0.00,Wunderground v.1.15,2013-11-14 20:12:00,
2013-11-14 12:17:00,59.3,53.1,30.03,SW,225,2.0,-999.0,80,0.00,,,0.00,Wunderground v.1.15,2013-11-14 20:17:00,
2013-11-14 12:29:00,59.3,53.1,30.03,SW,223,2.0,4.0,80,0.00,,,0.00,Wunderground v.1.15,2013-11-14 20:29:00,
2013-11-14 12:31:00,59.5,53.3,30.03,WNW,297,2.0,4.0,80,0.00,,,0.00,Wunderground v.1.15,2013-11-14 20:31:00,
2013-11-14 12:34:00,59.2,53.0,30.02,WSW,244,2.0,4.0,80,0.00,,,0.00,Wunderground v.1.15,2013-11-14 20:34:00,
2013-11-14 12:44:00,60.5,53.3,30.02,SW,228,2.0,2.0,77,0.00,,,0.00,Wunderground v.1.15,2013-11-14 20:44:00,
2013-11-14 12:54:00,61.1,53.5,30.03,SSW,197,3.0,3.0,76,0.00,,,0.00,Wunderground v.1.15,2013-11-14 20:54:00,
2013-11-14 13:04:00,61.0,53.4,30.02,SSW,207,3.0,5.0,76,0.00,,,0.00,Wunderground v.1.15,2013-11-14 21:04:00,
2013-11-14 13:09:00,61.7,53.3,30.02,SSE,165,3.0,4.0,74,0.00,,,0.00,Wunderground v.1.15,2013-11-14 21:09:00,
2013-11-14 13:19:00,62.5,53.3,30.01,SSW,196,3.0,6.0,72,0.00,,,0.00,Wunderground v.1.15,2013-11-14 21:19:00,
2013-11-14 13:29:00,62.3,53.5,30.01,SW,227,3.0,4.0,73,0.00,,,0.00,Wunderground v.1.15,2013-11-14 21:29:00,
2013-11-14 13:39:00,62.3,53.5,30.01,SSW,198,3.0,3.0,73,0.00,,,0.00,Wunderground v.1.15,2013-11-14 21:39:00,
2013-11-14 13:49:00,62.6,53.4,30.01,SSW,194,3.0,3.0,72,0.00,,,0.00,Wunderground v.1.15,2013-11-14 21:49:00,
2013-11-14 13:59:00,62.4,53.6,30.00,South,184,3.0,3.0,73,0.00,,,0.00,Wunderground v.1.15,2013-11-14 21:59:00,
2013-11-14 14:09:00,62.1,53.3,29.99,South,191,2.0,3.0,73,0.00,,,0.00,Wunderground v.1.15,2013-11-14 22:09:00,
2013-11-14 14:19:00,61.7,53.3,29.99,WSW,241,2.0,3.0,74,0.00,,,0.00,Wunderground v.1.15,2013-11-14 22:19:00,
2013-11-14 14:29:00,61.7,53.7,29.99,WSW,240,2.0,2.0,75,0.00,,,0.00,Wunderground v.1.15,2013-11-14 22:29:00,
2013-11-14 14:39:00,61.1,53.5,29.98,WSW,239,2.0,2.0,76,0.00,,,0.00,Wunderground v.1.15,2013-11-14 22:39:00,
2013-11-14 14:49:00,60.8,53.2,29.98,SSW,196,2.0,3.0,76,0.00,,,0.00,Wunderground v.1.15,2013-11-14 22:49:00,
2013-11-14 14:59:00,60.3,53.1,29.98,SW,217,3.0,3.0,77,0.00,,,0.00,Wunderground v.1.15,2013-11-14 22:59:00,
2013-11-14 15:09:00,59.0,52.8,29.98,WSW,245,3.0,5.0,80,0.00,,,0.00,Wunderground v.1.15,2013-11-14 23:09:00,
2013-11-14 15:19:00,57.9,52.4,29.98,WSW,250,2.0,2.0,82,0.00,,,0.00,Wunderground v.1.15,2013-11-14 23:19:00,
2013-11-14 15:29:00,57.2,52.4,29.98,SW,235,2.0,2.0,84,0.00,,,0.00,Wunderground v.1.15,2013-11-14 23:29:00,
2013-11-14 15:39:00,56.8,52.3,29.98,WSW,237,2.0,2.0,85,0.00,,,0.00,Wunderground v.1.15,2013-11-14 23:39:00,
2013-11-14 15:49:00,56.6,52.5,29.98,WSW,256,2.0,2.0,86,0.00,,,0.00,Wunderground v.1.15,2013-11-14 23:49:00,
2013-11-14 15:59:00,56.4,52.3,29.97,South,184,2.0,2.0,86,0.00,,,0.00,Wunderground v.1.15,2013-11-14 23:59:00,
2013-11-14 16:09:00,56.3,52.2,29.97,WSW,249,1.0,1.0,86,0.00,,,0.00,Wunderground v.1.15,2013-11-15 00:09:00,
2013-11-14 16:19:00,55.9,51.8,29.97,SW,236,1.0,1.0,86,0.00,,,0.00,Wunderground v.1.15,2013-11-15 00:19:00,
2013-11-14 16:29:00,55.7,51.6,29.96,South,191,1.0,2.0,86,0.00,,,0.00,Wunderground v.1.15,2013-11-15 00:29:00,
2013-11-14 16:39:00,55.3,51.2,29.96,SSW,203,2.0,3.0,86,0.00,,,0.00,Wunderground v.1.15,2013-11-15 00:39:00,
2013-11-14 16:44:00,55.0,51.2,29.96,SSW,211,2.0,3.0,87,0.00,,,0.00,Wunderground v.1.15,2013-11-15 00:44:00,
2013-11-14 16:54:00,54.5,51.0,29.96,SE,144,1.0,2.0,88,0.00,,,0.00,Wunderground v.1.15,2013-11-15 00:54:00,
2013-11-14 16:59:00,54.3,50.8,29.96,South,176,1.0,2.0,88,0.00,,,0.00,Wunderground v.1.15,2013-11-15 00:59:00,
2013-11-14 17:09:00,53.9,50.7,29.95,SE,137,1.0,3.0,89,0.00,,,0.00,Wunderground v.1.15,2013-11-15 01:09:00,
2013-11-14 17:19:00,53.6,50.4,29.95,ESE,121,1.0,1.0,89,0.00,,,0.00,Wunderground v.1.15,2013-11-15 01:19:00,
2013-11-14 17:29:00,53.3,50.4,29.95,East,96,1.0,1.0,90,0.00,,,0.00,Wunderground v.1.15,2013-11-15 01:29:00,
2013-11-14 17:39:00,53.0,50.1,29.95,SE,142,1.0,1.0,90,0.00,,,0.00,Wunderground v.1.15,2013-11-15 01:39:00,
2013-11-14 17:49:00,52.7,50.1,29.96,ESE,113,1.0,2.0,91,0.00,,,0.00,Wunderground v.1.15,2013-11-15 01:49:00,
2013-11-14 17:59:00,52.6,50.3,29.96,SSE,162,1.0,1.0,92,0.00,,,0.00,Wunderground v.1.15,2013-11-15 01:59:00,
2013-11-14 18:09:00,52.5,50.2,29.95,ESE,123,0.0,0.0,92,0.00,,,0.00,Wunderground v.1.15,2013-11-15 02:09:00,
2013-11-14 18:19:00,52.4,50.1,29.95,ESE,112,0.0,0.0,92,0.00,,,0.00,Wunderground v.1.15,2013-11-15 02:19:00,
2013-11-14 18:29:00,52.2,49.9,29.95,East,83,0.0,0.0,92,0.00,,,0.00,Wunderground v.1.15,2013-11-15 02:29:00,
2013-11-14 18:39:00,52.1,49.8,29.95,East,98,1.0,2.0,92,0.00,,,0.00,Wunderground v.1.15,2013-11-15 02:39:00,
2013-11-14 18:49:00,52.1,49.8,29.94,ENE,69,2.0,2.0,92,0.00,,,0.00,Wunderground v.1.15,2013-11-15 02:49:00,
2013-11-14 18:54:00,52.2,49.9,29.94,East,89,1.0,2.0,92,0.00,,,0.00,Wunderground v.1.15,2013-11-15 02:54:00,
2013-11-14 19:04:00,51.8,49.5,29.94,ESE,117,1.0,1.0,92,0.00,,,0.00,Wunderground v.1.15,2013-11-15 03:04:00,
2013-11-14 19:14:00,51.6,49.4,29.94,SE,132,1.0,1.0,92,0.00,,,0.00,Wunderground v.1.15,2013-11-15 03:14:00,
2013-11-14 19:24:00,51.2,49.2,29.94,SE,138,1.0,1.0,93,0.00,,,0.00,Wunderground v.1.15,2013-11-15 03:24:00,
2013-11-14 19:29:00,51.1,49.1,29.94,East,91,1.0,1.0,93,0.00,,,0.00,Wunderground v.1.15,2013-11-15 03:29:00,
2013-11-14 19:39:00,50.9,48.9,29.94,ESE,119,0.0,1.0,93,0.00,,,0.00,Wunderground v.1.15,2013-11-15 03:39:00,
2013-11-14 19:49:00,50.6,48.7,29.94,ESE,113,0.0,0.0,93,0.00,,,0.00,Wunderground v.1.15,2013-11-15 03:49:00,
2013-11-14 19:59:00,50.6,48.9,29.93,ESE,119,1.0,1.0,94,0.00,,,0.00,Wunderground v.1.15,2013-11-15 03:59:00,
2013-11-14 20:09:00,50.6,48.9,29.93,SSE,150,0.0,0.0,94,0.00,,,0.00,Wunderground v.1.15,2013-11-15 04:09:00,
2013-11-14 20:19:00,50.4,48.7,29.93,ESE,115,0.0,0.0,94,0.00,,,0.00,Wunderground v.1.15,2013-11-15 04:19:00,
2013-11-14 20:29:00,50.3,48.6,29.93,East,86,0.0,0.0,94,0.00,,,0.00,Wunderground v.1.15,2013-11-15 04:29:00,
2013-11-14 20:39:00,50.2,48.5,29.93,NNW,333,0.0,0.0,94,0.00,,,0.00,Wunderground v.1.15,2013-11-15 04:39:00,
2013-11-14 20:49:00,50.3,48.9,29.92,SE,133,0.0,1.0,95,0.00,,,0.00,Wunderground v.1.15,2013-11-15 04:49:00,
2013-11-14 20:59:00,50.3,48.6,29.92,East,101,1.0,1.0,94,0.00,,,0.00,Wunderground v.1.15,2013-11-15 04:59:00,
2013-11-14 21:04:00,50.2,48.5,29.92,East,85,0.0,1.0,94,0.00,,,0.00,Wunderground v.1.15,2013-11-15 05:04:00,
2013-11-14 21:09:00,50.0,48.3,29.92,East,85,0.0,0.0,94,0.00,,,0.00,Wunderground v.1.15,2013-11-15 05:09:00,
2013-11-14 21:14:00,49.9,48.2,29.92,ENE,77,0.0,0.0,94,0.00,,,0.00,Wunderground v.1.15,2013-11-15 05:14:00,
2013-11-14 21:19:00,49.8,48.1,29.92,ENE,77,0.0,0.0,94,0.00,,,0.00,Wunderground v.1.15,2013-11-15 05:19:00,
2013-11-14 21:29:00,49.8,48.1,29.92,NW,309,0.0,0.0,94,0.00,,,0.00,Wunderground v.1.15,2013-11-15 05:29:00,
2013-11-14 21:39:00,49.3,47.6,29.92,NNW,344,0.0,0.0,94,0.00,,,0.00,Wunderground v.1.15,2013-11-15 05:39:00,
2013-11-14 21:44:00,49.3,47.6,29.92,NNW,344,0.0,0.0,94,0.00,,,0.00,Wunderground v.1.15,2013-11-15 05:44:00,
2013-11-14 21:54:00,49.1,47.4,29.92,NNW,344,0.0,0.0,94,0.00,,,0.00,Wunderground v.1.15,2013-11-15 05:54:00,
2013-11-14 22:04:00,48.7,47.3,29.91,WNW,293,0.0,1.0,95,0.00,,,0.00,Wunderground v.1.15,2013-11-15 06:04:00,
2013-11-14 22:09:00,48.2,46.6,29.92,WNW,298,0.0,0.0,94,0.00,,,0.00,Wunderground v.1.15,2013-11-15 06:09:00,
2013-11-14 22:19:00,48.2,46.6,29.91,North,4,0.0,0.0,94,0.00,,,0.00,Wunderground v.1.15,2013-11-15 06:19:00,
2013-11-14 22:29:00,48.2,46.8,29.91,SSE,160,0.0,0.0,95,0.00,,,0.00,Wunderground v.1.15,2013-11-15 06:29:00,
2013-11-14 22:39:00,48.2,46.8,29.91,WSW,254,0.0,0.0,95,0.00,,,0.00,Wunderground v.1.15,2013-11-15 06:39:00,
2013-11-14 22:49:00,48.8,47.7,29.91,WSW,257,0.0,0.0,96,0.00,,,0.00,Wunderground v.1.15,2013-11-15 06:49:00,
2013-11-14 22:59:00,49.1,47.7,29.91,West,274,0.0,0.0,95,0.00,,,0.00,Wunderground v.1.15,2013-11-15 06:59:00,
2013-11-14 23:09:00,48.8,47.2,29.91,NNW,336,0.0,1.0,94,0.00,,,0.00,Wunderground v.1.15,2013-11-15 07:09:00,
2013-11-14 23:19:00,48.7,47.1,29.91,NNW,336,0.0,0.0,94,0.00,,,0.00,Wunderground v.1.15,2013-11-15 07:19:00,
2013-11-14 23:29:00,48.4,47.0,29.91,North,8,0.0,0.0,95,0.00,,,0.00,Wunderground v.1.15,2013-11-15 07:29:00,
2013-11-14 23:39:00,48.9,47.5,29.91,North,8,0.0,0.0,95,0.00,,,0.00,Wunderground v.1.15,2013-11-15 07:39:00,
2013-11-14 23:49:00,48.7,47.3,29.91,SW,236,0.0,0.0,95,0.00,,,0.00,Wunderground v.1.15,2013-11-15 07:49:00,
2013-11-14 23:59:00,48.3,46.7,29.90,WSW,258,0.0,0.0,94,0.00,,,0.00,Wunderground v.1.15,2013-11-15 07:59:00,